User: anonymous   Login
Location: Vancouver
(49.2500°N, 123.1330°W)
Time: 10:09:37
(UTC-07:00)
Language:

Cosmos 1939 Rocket - Orbit

View from above orbital plane
View from above orbital plane
View from above satellite
View from above satellite

Ground track
Ground track

The orbit data is extracted from the following two-line orbital elements,

1 19046U 88032B   18168.92378714 +.00000763 +00000-0 +61129-4 0  9995
2 19046 097.4810 209.1943 0038389 169.7474 190.4543 15.02443318627268
Epoch (UTC): 17 June 2018 22:10:15
Eccentricity: 0.0038389
inclination: 97.4810°
perigee height: 533 km
apogee height: 586 km
right ascension of ascending node: 209.1943°
argument of perigee: 169.7474°
revolutions per day: 15.02443318
mean anomaly at epoch: 190.4543°
orbit number at epoch: 62726

The dashed part of the orbit path shows where the satellite is in the earth's shadow,  

DLR